Time,TemperatureF,DewpointF,PressureIn,WindDirection,WindDirectionDegrees,WindSpeedMPH,WindSpeedGustMPH,Humidity,HourlyPrecipIn,Conditions,Clouds,dailyrainin,SolarRadiationWatts/m^2,SoftwareType,DateUTC
2013-08-11 00:01:00,69.0,68.0,-100.00,North,0,1.0,3.0,98,0.00,,,0.47,0.000000,,2013-08-11 04:01:00,
2013-08-11 00:32:00,69.0,68.0,-100.00,North,1,1.0,3.0,98,0.00,,,0.46,0.000000,,2013-08-11 04:32:00,
2013-08-11 00:43:00,69.0,68.0,-100.00,North,1,1.0,3.0,98,0.00,,,0.46,0.000000,,2013-08-11 04:43:00,
2013-08-11 00:53:00,69.0,68.0,-100.00,North,1,1.0,3.0,98,0.00,,,0.46,0.000000,,2013-08-11 04:53:00,
2013-08-11 01:02:00,69.0,68.0,-100.00,North,1,1.0,3.0,98,0.00,,,0.46,0.000000,,2013-08-11 05:02:00,
2013-08-11 01:38:00,68.0,67.0,-100.00,North,0,0.0,2.0,98,0.00,,,0.46,0.000000,,2013-08-11 05:38:00,
2013-08-11 01:50:00,68.0,67.0,-100.00,North,0,0.0,2.0,98,0.00,,,0.46,0.000000,,2013-08-11 05:50:00,
2013-08-11 02:04:00,68.0,67.0,-100.00,North,0,0.0,2.0,98,0.00,,,0.46,0.000000,,2013-08-11 06:04:00,
2013-08-11 02:05:00,67.0,66.0,-100.00,North,0,2.0,3.0,98,0.00,,,0.46,0.000000,,2013-08-11 06:05:00,
2013-08-11 02:38:00,67.0,66.0,-100.00,North,0,2.0,3.0,98,0.00,,,0.46,0.000000,,2013-08-11 06:38:00,
2013-08-11 02:49:00,67.0,66.0,-100.00,North,0,2.0,3.0,98,0.00,,,0.46,0.000000,,2013-08-11 06:49:00,
2013-08-11 02:57:00,67.0,66.0,-100.00,North,0,2.0,3.0,98,0.00,,,0.46,0.000000,,2013-08-11 06:57:00,
2013-08-11 03:05:00,67.0,66.0,-100.00,North,1,1.0,2.0,98,0.00,,,0.46,0.000000,,2013-08-11 07:05:00,
2013-08-11 03:38:00,67.0,66.0,-100.00,North,1,1.0,2.0,98,0.00,,,0.46,0.000000,,2013-08-11 07:38:00,
2013-08-11 03:47:00,67.0,66.0,-100.00,North,1,1.0,2.0,98,0.00,,,0.46,0.000000,,2013-08-11 07:47:00,
2013-08-11 03:56:00,67.0,66.0,-100.00,North,1,1.0,2.0,98,0.00,,,0.46,0.000000,,2013-08-11 07:56:00,
2013-08-11 04:37:00,67.0,66.0,-100.00,North,1,1.0,2.0,98,0.00,,,0.46,0.000000,,2013-08-11 08:37:00,
2013-08-11 04:49:00,67.0,66.0,-100.00,North,1,1.0,2.0,98,0.00,,,0.46,0.000000,,2013-08-11 08:49:00,
2013-08-11 04:59:00,67.0,66.0,-100.00,North,1,1.0,2.0,98,0.00,,,0.46,0.000000,,2013-08-11 08:59:00,
2013-08-11 05:05:00,66.0,65.0,-100.00,North,1,1.0,2.0,98,0.00,,,0.45,0.000000,,2013-08-11 09:05:00,
2013-08-11 05:37:00,66.0,65.0,-100.00,North,1,1.0,2.0,98,0.00,,,0.45,0.000000,,2013-08-11 09:37:00,
2013-08-11 05:44:00,66.0,65.0,-100.00,North,1,1.0,2.0,98,0.00,,,0.45,0.000000,,2013-08-11 09:44:00,
2013-08-11 06:01:00,66.0,65.0,-100.00,North,1,1.0,2.0,98,0.00,,,0.45,0.000000,,2013-08-11 10:01:00,
2013-08-11 06:05:00,66.0,65.0,-100.00,North,1,1.0,2.0,98,0.00,,,0.45,0.000000,,2013-08-11 10:05:00,
2013-08-11 06:38:00,66.0,65.0,-100.00,North,1,1.0,2.0,98,0.00,,,0.45,0.000000,,2013-08-11 10:38:00,
2013-08-11 06:47:00,66.0,65.0,-100.00,North,1,1.0,2.0,98,0.00,,,0.45,0.000000,,2013-08-11 10:47:00,
2013-08-11 06:57:00,66.0,65.0,-100.00,North,1,1.0,2.0,98,0.00,,,0.45,0.000000,,2013-08-11 10:57:00,
2013-08-11 07:05:00,66.0,65.0,-100.00,North,1,0.0,1.0,98,0.00,,,-99.99,2.000000,,2013-08-11 11:05:00,
2013-08-11 07:40:00,66.0,65.0,-100.00,North,1,0.0,1.0,98,0.00,,,-99.99,2.000000,,2013-08-11 11:40:00,
2013-08-11 07:50:00,66.0,65.0,-100.00,North,1,0.0,1.0,98,0.00,,,-99.99,2.000000,,2013-08-11 11:50:00,
2013-08-11 08:05:00,67.0,66.0,-100.00,North,1,0.0,1.0,98,0.00,,,-99.99,31.000000,,2013-08-11 12:05:00,
2013-08-11 08:38:00,67.0,66.0,-100.00,North,1,0.0,1.0,98,0.00,,,-99.99,31.000000,,2013-08-11 12:38:00,
2013-08-11 08:47:00,67.0,66.0,-100.00,North,1,0.0,1.0,98,0.00,,,-99.99,31.000000,,2013-08-11 12:47:00,
2013-08-11 08:56:00,67.0,66.0,-100.00,North,1,0.0,1.0,98,0.00,,,-99.99,31.000000,,2013-08-11 12:56:00,
2013-08-11 09:05:00,69.0,68.0,-100.00,North,0,2.0,4.0,98,0.00,,,0.45,131.000000,,2013-08-11 13:05:00,
2013-08-11 09:41:00,69.0,68.0,-100.00,North,0,2.0,4.0,98,0.00,,,0.45,131.000000,,2013-08-11 13:41:00,
2013-08-11 09:48:00,69.0,68.0,-100.00,North,0,2.0,4.0,98,0.00,,,0.45,131.000000,,2013-08-11 13:48:00,
2013-08-11 09:58:00,69.0,68.0,-100.00,North,0,2.0,4.0,98,0.00,,,0.45,131.000000,,2013-08-11 13:58:00,
2013-08-11 10:05:00,73.0,71.0,-100.00,North,0,2.0,3.0,93,0.00,,,0.35,289.000000,,2013-08-11 14:05:00,
2013-08-11 10:36:00,73.0,71.0,-100.00,North,0,2.0,3.0,93,0.00,,,0.35,289.000000,,2013-08-11 14:36:00,
2013-08-11 10:49:00,73.0,71.0,-100.00,North,0,2.0,3.0,93,0.00,,,0.35,289.000000,,2013-08-11 14:49:00,
2013-08-11 10:57:00,73.0,71.0,-100.00,North,0,2.0,3.0,93,0.00,,,0.35,289.000000,,2013-08-11 14:57:00,
2013-08-11 11:05:00,80.0,73.0,-100.00,North,0,2.0,4.0,80,0.00,,,0.35,687.000000,,2013-08-11 15:05:00,
2013-08-11 11:41:00,80.0,73.0,-100.00,North,0,2.0,4.0,80,0.00,,,0.35,687.000000,,2013-08-11 15:41:00,
2013-08-11 11:49:00,80.0,73.0,-100.00,North,0,2.0,4.0,80,0.00,,,0.35,687.000000,,2013-08-11 15:49:00,
2013-08-11 12:00:00,80.0,73.0,-100.00,North,0,2.0,4.0,80,0.00,,,0.35,687.000000,,2013-08-11 16:00:00,
2013-08-11 12:05:00,84.0,72.0,-100.00,North,0,3.0,9.0,67,0.00,,,0.35,754.000000,,2013-08-11 16:05:00,
2013-08-11 12:41:00,84.0,72.0,-100.00,North,0,3.0,9.0,67,0.00,,,0.35,754.000000,,2013-08-11 16:41:00,
2013-08-11 12:47:00,84.0,72.0,-100.00,North,0,3.0,9.0,67,0.00,,,0.35,754.000000,,2013-08-11 16:47:00,
2013-08-11 12:59:00,84.0,72.0,-100.00,North,0,3.0,9.0,67,0.00,,,0.35,754.000000,,2013-08-11 16:59:00,
2013-08-11 13:05:00,83.0,69.0,-100.00,North,0,5.0,9.0,62,0.00,,,0.32,943.000000,,2013-08-11 17:05:00,
2013-08-11 13:38:00,83.0,69.0,-100.00,North,0,5.0,9.0,62,0.00,,,0.32,943.000000,,2013-08-11 17:38:00,
2013-08-11 13:48:00,83.0,69.0,-100.00,North,0,5.0,9.0,62,0.00,,,0.32,943.000000,,2013-08-11 17:48:00,
2013-08-11 13:58:00,83.0,69.0,-100.00,North,0,5.0,9.0,62,0.00,,,0.32,943.000000,,2013-08-11 17:58:00,
2013-08-11 14:05:00,84.0,71.0,-100.00,North,2,2.0,7.0,65,0.00,,,0.31,630.000000,,2013-08-11 18:05:00,
2013-08-11 14:40:00,84.0,71.0,-100.00,North,2,2.0,7.0,65,0.00,,,0.31,630.000000,,2013-08-11 18:40:00,
2013-08-11 14:49:00,84.0,71.0,-100.00,North,2,2.0,7.0,65,0.00,,,0.31,630.000000,,2013-08-11 18:49:00,
2013-08-11 14:57:00,84.0,71.0,-100.00,North,2,2.0,7.0,65,0.00,,,0.31,630.000000,,2013-08-11 18:57:00,
2013-08-11 15:05:00,85.0,70.0,-100.00,North,1,3.0,5.0,60,0.00,,,0.31,866.000000,,2013-08-11 19:05:00,
2013-08-11 15:35:00,85.0,70.0,-100.00,North,1,3.0,5.0,60,0.00,,,0.31,866.000000,,2013-08-11 19:35:00,
2013-08-11 15:51:00,85.0,70.0,-100.00,North,1,3.0,5.0,60,0.00,,,0.31,866.000000,,2013-08-11 19:51:00,
2013-08-11 16:00:00,85.0,70.0,-100.00,North,1,3.0,5.0,60,0.00,,,0.31,866.000000,,2013-08-11 20:00:00,
2013-08-11 16:05:00,84.0,72.0,-100.00,North,2,3.0,6.0,67,0.00,,,0.12,562.000000,,2013-08-11 20:05:00,
2013-08-11 16:40:00,84.0,72.0,-100.00,North,2,3.0,6.0,67,0.00,,,0.12,562.000000,,2013-08-11 20:40:00,
2013-08-11 16:50:00,84.0,72.0,-100.00,North,2,3.0,6.0,67,0.00,,,0.12,562.000000,,2013-08-11 20:50:00,
2013-08-11 16:59:00,84.0,72.0,-100.00,North,2,3.0,6.0,67,0.00,,,0.12,562.000000,,2013-08-11 20:59:00,
2013-08-11 17:50:00,81.0,72.0,-100.00,North,1,3.0,6.0,73,0.00,,,0.02,317.000000,,2013-08-11 21:50:00,
2013-08-11 17:59:00,81.0,72.0,-100.00,North,1,3.0,6.0,73,0.00,,,0.02,317.000000,,2013-08-11 21:59:00,
2013-08-11 18:04:00,81.0,72.0,-100.00,North,1,3.0,6.0,73,0.00,,,0.02,317.000000,,2013-08-11 22:04:00,
2013-08-11 18:05:00,82.0,74.0,-100.00,North,0,2.0,6.0,76,0.00,,,0.00,234.000000,,2013-08-11 22:05:00,
2013-08-11 18:36:00,82.0,74.0,-100.00,North,0,2.0,6.0,76,0.00,,,0.00,234.000000,,2013-08-11 22:36:00,
2013-08-11 18:48:00,82.0,74.0,-100.00,North,0,2.0,6.0,76,0.00,,,0.00,234.000000,,2013-08-11 22:48:00,
2013-08-11 18:58:00,82.0,74.0,-100.00,North,0,2.0,6.0,76,0.00,,,0.00,234.000000,,2013-08-11 22:58:00,
2013-08-11 19:05:00,85.0,71.0,-100.00,North,2,2.0,6.0,64,0.00,,,0.00,359.000000,,2013-08-11 23:05:00,
2013-08-11 19:37:00,85.0,71.0,-100.00,North,2,2.0,6.0,64,0.00,,,0.00,359.000000,,2013-08-11 23:37:00,
2013-08-11 19:58:00,85.0,71.0,-100.00,North,2,2.0,6.0,64,0.00,,,0.00,359.000000,,2013-08-11 23:58:00,
2013-08-11 20:05:00,76.0,71.0,-100.00,North,2,1.0,5.0,84,-99.99,,,0.00,52.000000,,2013-08-12 00:05:00,
2013-08-11 20:38:00,76.0,71.0,-100.00,North,2,1.0,5.0,84,-99.99,,,0.00,52.000000,,2013-08-12 00:38:00,
2013-08-11 20:52:00,76.0,71.0,-100.00,North,2,1.0,5.0,84,-99.99,,,0.00,52.000000,,2013-08-12 00:52:00,
2013-08-11 20:59:00,76.0,71.0,-100.00,North,2,1.0,5.0,84,-99.99,,,0.00,52.000000,,2013-08-12 00:59:00,
2013-08-11 21:05:00,72.0,70.0,-100.00,North,1,1.0,3.0,92,0.00,,,0.00,2.000000,,2013-08-12 01:05:00,
2013-08-11 21:40:00,72.0,70.0,-100.00,North,1,1.0,3.0,92,0.00,,,0.00,2.000000,,2013-08-12 01:40:00,
2013-08-11 21:48:00,72.0,70.0,-100.00,North,1,1.0,3.0,92,0.00,,,0.00,2.000000,,2013-08-12 01:48:00,
2013-08-11 21:56:00,72.0,70.0,-100.00,North,1,1.0,3.0,92,0.00,,,0.00,2.000000,,2013-08-12 01:56:00,
2013-08-11 22:05:00,71.0,70.0,-100.00,North,1,0.0,4.0,96,0.00,,,0.00,0.000000,,2013-08-12 02:05:00,
2013-08-11 22:37:00,71.0,70.0,-100.00,North,1,0.0,4.0,96,0.00,,,0.00,0.000000,,2013-08-12 02:37:00,
2013-08-11 22:50:00,71.0,70.0,-100.00,North,1,0.0,4.0,96,0.00,,,0.00,0.000000,,2013-08-12 02:50:00,
2013-08-11 23:00:00,71.0,70.0,-100.00,North,1,0.0,4.0,96,0.00,,,0.00,0.000000,,2013-08-12 03:00:00,
2013-08-11 23:39:00,71.0,70.0,-100.00,North,1,1.0,4.0,97,0.00,,,0.00,0.000000,,2013-08-12 03:39:00,
2013-08-11 23:48:00,71.0,70.0,-100.00,North,1,1.0,4.0,97,0.00,,,0.00,0.000000,,2013-08-12 03:48:00,